| time (UTC) | temp C | wind direction | speed KPH | gust KPH | rain 1hr cm | rain 24hr cm | rain mn cm | humidity % | barometer mb |
| 20260504030942 | 6 | 180 | 3.2 | 6.4 | 0.00 | 0.00 | 0.00 | 88 | 1005.7 |
| 20260504030439 | 6 | 188 | 3.2 | 4.8 | 0.00 | 0.00 | 0.00 | 87 | 1005.6 |
| 20260504025934 | 6 | 155 | 3.2 | 3.2 | 0.00 | 0.00 | 0.00 | 87 | 1006.0 |
| 20260504025432 | 6 | 219 | 1.6 | 3.2 | 0.00 | 0.00 | 0.00 | 87 | 1005.8 |
| 20260504024929 | 6 | 206 | 0.0 | 4.8 | 0.00 | 0.00 | 0.00 | 86 | 1006.0 |
| 20260504024426 | 6 | 178 | 0.0 | 4.8 | 0.00 | 0.00 | 0.00 | 86 | 1006.0 |
| 20260504023923 | 6 | 187 | 1.6 | 3.2 | 0.00 | 0.00 | 0.00 | 85 | 1005.9 |
| 20260504023419 | 6 | 189 | 3.2 | 4.8 | 0.00 | 0.00 | 0.00 | 84 | 1006.0 |
| 20260504022915 | 6 | 115 | 0.0 | 6.4 | 0.00 | 0.00 | 0.00 | 84 | 1006.0 |
| 20260504022411 | 6 | 235 | 3.2 | 4.8 | 0.00 | 0.00 | 0.00 | 83 | 1006.0 |
| 20260504021908 | 6 | 198 | 3.2 | 3.2 | 0.00 | 0.00 | 0.00 | 83 | 1006.0 |
| 20260504021405 | 6 | 210 | 0.0 | 6.4 | 0.00 | 0.00 | 0.00 | 82 | 1006.1 |
| 20260504020903 | 6 | 185 | 0.0 | 0.0 | 0.00 | 0.00 | 0.00 | 82 | 1006.3 |
| 20260504020359 | 6 | 164 | 0.0 | 1.6 | 0.00 | 0.00 | 0.00 | 81 | 1006.1 |
| 20260504015855 | 6 | 148 | 0.0 | 1.6 | 0.00 | 0.00 | 0.00 | 81 | 1006.4 |
| 20260504015351 | 6 | 179 | 0.0 | 1.6 | 0.00 | 0.00 | 0.00 | 80 | 1006.3 |
| 20260504014847 | 6 | 172 | 3.2 | 4.8 | 0.00 | 0.00 | 0.00 | 80 | 1006.3 |
| 20260504014343 | 6 | 183 | 1.6 | 3.2 | 0.00 | 0.00 | 0.00 | 80 | 1006.3 |
| 20260504013841 | 6 | 172 | 0.0 | 3.2 | 0.00 | 0.00 | 0.00 | 79 | 1006.4 |
| 20260504013339 | 6 | 122 | 0.0 | 1.6 | 0.00 | 0.00 | 0.00 | 79 | 1006.5 |
| 20260504012836 | 6 | 156 | 1.6 | 6.4 | 0.00 | 0.00 | 0.00 | 79 | 1006.5 |
| 20260504012333 | 6 | 172 | 0.0 | 3.2 | 0.00 | 0.00 | 0.00 | 79 | 1006.4 |
| 20260504011831 | 6 | 175 | 0.0 | 4.8 | 0.00 | 0.00 | 0.00 | 78 | 1006.4 |
| 20260504011327 | 6 | 127 | 1.6 | 4.8 | 0.00 | 0.00 | 0.00 | 78 | 1006.3 |
| 20260504010823 | 6 | 190 | 1.6 | 4.8 | 0.00 | 0.00 | 0.00 | 78 | 1006.2 |
| 20260504010319 | 6 | 160 | 1.6 | 3.2 | 0.00 | 0.00 | 0.00 | 77 | 1006.4 |
| 20260504005815 | 6 | 218 | 1.6 | 3.2 | 0.00 | 0.00 | 0.00 | 77 | 1006.4 |
| 20260504005312 | 6 | 199 | 0.0 | 1.6 | 0.00 | 0.00 | 0.00 | 77 | 1006.4 |
| 20260504004810 | 6 | 198 | 3.2 | 4.8 | 0.00 | 0.00 | 0.00 | 76 | 1006.4 |
| 20260504004308 | 6 | 166 | 3.2 | 6.4 | 0.00 | 0.00 | 0.00 | 76 | 1006.3 |
| 20260504003804 | 6 | 244 | 0.0 | 4.8 | 0.00 | 0.00 | 0.00 | 76 | 1006.5 |
| 20260504003301 | 6 | 343 | 1.6 | 3.2 | 0.00 | 0.00 | 0.00 | 75 | 1006.5 |
| 20260504002757 | 6 | 159 | 1.6 | 6.4 | 0.00 | 0.00 | 0.00 | 75 | 1006.2 |
| 20260504002254 | 6 | 153 | 0.0 | 9.7 | 0.00 | 0.00 | 0.00 | 75 | 1006.4 |
| 20260504001752 | 7 | 201 | 0.0 | 6.4 | 0.00 | 0.00 | 0.00 | 74 | 1006.1 |
| 20260504001249 | 7 | 145 | 1.6 | 6.4 | 0.00 | 0.00 | 0.00 | 74 | 1006.2 |
| 20260504000746 | 7 | 258 | 3.2 | 4.8 | 0.00 | 0.00 | 0.00 | 73 | 1006.2 |
| 20260504000243 | 7 | 191 | 1.6 | 3.2 | 0.00 | 0.00 | 0.00 | 74 | 1006.1 |
| 20260503235741 | 7 | 165 | 1.6 | 9.7 | 0.00 | 0.00 | 0.00 | 74 | 1006.1 |
| 20260503235237 | 7 | 200 | 1.6 | 3.2 | 0.00 | 0.00 | 0.00 | 74 | 1006.3 |
| 20260503234735 | 7 | 166 | 0.0 | 3.2 | 0.00 | 0.00 | 0.00 | 75 | 1006.1 |
| 20260503234233 | 7 | 196 | 0.0 | 3.2 | 0.00 | 0.00 | 0.00 | 75 | 1006.2 |
| 20260503233730 | 7 | 159 | 1.6 | 6.4 | 0.00 | 0.00 | 0.00 | 74 | 1006.3 |
| 20260503233225 | 7 | 175 | 8.0 | 12.9 | 0.00 | 0.00 | 0.00 | 73 | 1006.5 |
| 20260503232723 | 7 | 190 | 1.6 | 6.4 | 0.00 | 0.00 | 0.00 | 71 | 1006.3 |
| 20260503232220 | 7 | 167 | 3.2 | 3.2 | 0.00 | 0.00 | 0.00 | 71 | 1006.4 |
| 20260503231718 | 7 | 184 | 3.2 | 4.8 | 0.00 | 0.00 | 0.00 | 70 | 1006.2 |
| 20260503231215 | 7 | 197 | 1.6 | 9.7 | 0.00 | 0.00 | 0.00 | 69 | 1006.2 |
| 20260503230711 | 8 | 154 | 3.2 | 9.7 | 0.00 | 0.00 | 0.00 | 64 | 1006.1 |
| 20260503230208 | 8 | 222 | 6.4 | 14.5 | 0.00 | 0.00 | 0.00 | 60 | 1006.3 |
| 20260503225705 | 8 | 142 | 3.2 | 11.3 | 0.00 | 0.00 | 0.00 | 57 | 1006.2 |
| 20260503225206 | 9 | 234 | 0.0 | 9.7 | 0.00 | 0.00 | 0.00 | 54 | 1006.1 |
| 20260503224703 | 10 | 210 | 4.8 | 17.7 | 0.00 | 0.00 | 0.00 | 51 | 1005.9 |
| 20260503224201 | 10 | 186 | 3.2 | 9.7 | 0.00 | 0.00 | 0.00 | 47 | 1006.0 |
| 20260503223658 | 10 | 207 | 6.4 | 14.5 | 0.00 | 0.00 | 0.00 | 45 | 1005.7 |
| 20260503223155 | 10 | 248 | 4.8 | 11.3 | 0.00 | 0.00 | 0.00 | 43 | 1005.9 |
| 20260503222652 | 10 | 106 | 1.6 | 14.5 | 0.00 | 0.00 | 0.00 | 43 | 1005.7 |
| 20260503222149 | 11 | 254 | 4.8 | 11.3 | 0.00 | 0.00 | 0.00 | 42 | 1006.1 |
| 20260503221648 | 10 | 214 | 1.6 | 3.2 | 0.00 | 0.00 | 0.00 | 43 | 1005.7 |
| 20260503221145 | 11 | 338 | 1.6 | 9.7 | 0.00 | 0.00 | 0.00 | 42 | 1005.9 |
| 20260503220642 | 11 | 283 | 3.2 | 6.4 | 0.00 | 0.00 | 0.00 | 41 | 1005.9 |
| 20260503220138 | 11 | 183 | 0.0 | 3.2 | 0.00 | 0.00 | 0.00 | 40 | 1006.0 |
| 20260503215636 | 11 | 45 | 1.6 | 3.2 | 0.00 | 0.00 | 0.00 | 39 | 1005.8 |
| 20260503215132 | 11 | 292 | 0.0 | 6.4 | 0.00 | 0.00 | 0.00 | 39 | 1006.0 |
| 20260503214631 | 11 | 228 | 8.0 | 11.3 | 0.00 | 0.00 | 0.00 | 37 | 1006.0 |
| 20260503214126 | 11 | 134 | 6.4 | 12.9 | 0.00 | 0.00 | 0.00 | 37 | 1005.7 |
| 20260503213626 | 11 | 187 | 6.4 | 11.3 | 0.00 | 0.00 | 0.00 | 37 | 1005.9 |
| 20260503213122 | 11 | 260 | 3.2 | 4.8 | 0.00 | 0.00 | 0.00 | 37 | 1005.6 |
| 20260503212619 | 11 | 224 | 6.4 | 9.7 | 0.00 | 0.00 | 0.00 | 36 | 1005.6 |
| 20260503212117 | 11 | 167 | 1.6 | 3.2 | 0.00 | 0.00 | 0.00 | 36 | 1005.7 |
| 20260503211614 | 11 | 201 | 3.2 | 9.7 | 0.00 | 0.00 | 0.00 | 36 | 1005.9 |
| 20260503211110 | 12 | 201 | 4.8 | 9.7 | 0.00 | 0.00 | 0.00 | 35 | 1005.7 |
| 20260503210606 | 12 | 195 | 1.6 | 11.3 | 0.00 | 0.00 | 0.00 | 34 | 1005.8 |
| 20260503205559 | 12 | 229 | 0.0 | 12.9 | 0.00 | 0.00 | 0.00 | 34 | 1005.8 |
| 20260503205055 | 12 | 191 | 0.0 | 6.4 | 0.00 | 0.00 | 0.00 | 33 | 1006.0 |
| 20260503204552 | 11 | 243 | 6.4 | 9.7 | 0.00 | 0.00 | 0.00 | 34 | 1005.9 |
| 20260503204049 | 11 | 283 | 3.2 | 6.4 | 0.00 | 0.00 | 0.00 | 35 | 1005.9 |
| 20260503203546 | 12 | 105 | 1.6 | 4.8 | 0.00 | 0.00 | 0.00 | 35 | 1006.1 |
| 20260503203043 | 11 | 217 | 3.2 | 9.7 | 0.00 | 0.00 | 0.00 | 34 | 1006.1 |
| 20260503202541 | 12 | 172 | 0.0 | 6.4 | 0.00 | 0.00 | 0.00 | 34 | 1006.1 |
| 20260503202039 | 12 | 176 | 3.2 | 11.3 | 0.00 | 0.00 | 0.00 | 34 | 1006.2 |
| 20260503201537 | 12 | 225 | 3.2 | 9.7 | 0.00 | 0.00 | 0.00 | 33 | 1006.2 |
| 20260503201034 | 11 | 231 | 0.0 | 9.7 | 0.00 | 0.00 | 0.00 | 34 | 1006.3 |
| 20260503200530 | 12 | 289 | 3.2 | 4.8 | 0.00 | 0.00 | 0.00 | 33 | 1006.4 |
| 20260503200027 | 11 | 215 | 4.8 | 9.7 | 0.00 | 0.00 | 0.00 | 34 | 1006.3 |
| 20260503195524 | 11 | 102 | 3.2 | 12.9 | 0.00 | 0.00 | 0.00 | 34 | 1006.4 |
| 20260503195021 | 12 | 208 | 4.8 | 11.3 | 0.00 | 0.00 | 0.00 | 31 | 1006.4 |
| 20260503194518 | 12 | 171 | 3.2 | 9.7 | 0.00 | 0.00 | 0.00 | 32 | 1006.5 |
| 20260503194018 | 12 | 101 | 0.0 | 6.4 | 0.00 | 0.00 | 0.00 | 33 | 1006.7 |
| 20260503193515 | 11 | 239 | 3.2 | 11.3 | 0.00 | 0.00 | 0.00 | 34 | 1006.5 |
| 20260503193010 | 11 | 94 | 1.6 | 12.9 | 0.00 | 0.00 | 0.00 | 33 | 1006.8 |
| 20260503192506 | 12 | 223 | 4.8 | 9.7 | 0.00 | 0.00 | 0.00 | 32 | 1006.9 |
| 20260503192002 | 12 | 314 | 11.3 | 20.9 | 0.00 | 0.00 | 0.00 | 31 | 1007.1 |
| 20260503191459 | 11 | 165 | 3.2 | 11.3 | 0.00 | 0.00 | 0.00 | 32 | 1007.1 |
| 20260503190955 | 11 | 257 | 6.4 | 11.3 | 0.00 | 0.00 | 0.00 | 32 | 1007.2 |
| 20260503190453 | 11 | 193 | 6.4 | 9.7 | 0.00 | 0.00 | 0.00 | 33 | 1007.1 |
| 20260503185950 | 11 | 242 | 9.7 | 16.1 | 0.00 | 0.00 | 0.00 | 32 | 1007.2 |
| 20260503185446 | 11 | 174 | 6.4 | 12.9 | 0.00 | 0.00 | 0.00 | 32 | 1007.4 |
| 20260503184946 | 11 | 226 | 4.8 | 6.4 | 0.00 | 0.00 | 0.00 | 32 | 1007.3 |
| 20260503184443 | 12 | 220 | 3.2 | 11.3 | 0.00 | 0.00 | 0.00 | 31 | 1007.5 |
| 20260503183939 | 11 | 199 | 0.0 | 24.1 | 0.00 | 0.00 | 0.00 | 34 | 1007.4 |
| 20260503183435 | 11 | 249 | 9.7 | 12.9 | 0.00 | 0.00 | 0.00 | 31 | 1007.6 |
| 20260503182933 | 11 | 292 | 9.7 | 14.5 | 0.00 | 0.00 | 0.00 | 32 | 1007.5 |
| 20260503182431 | 11 | 185 | 0.0 | 6.4 | 0.00 | 0.00 | 0.00 | 32 | 1007.6 |
| 20260503181928 | 11 | 217 | 9.7 | 11.3 | 0.00 | 0.00 | 0.00 | 31 | 1007.8 |
| 20260503181426 | 11 | 178 | 6.4 | 11.3 | 0.00 | 0.00 | 0.00 | 31 | 1007.9 |
| 20260503180921 | 10 | 251 | 4.8 | 6.4 | 0.00 | 0.00 | 0.00 | 32 | 1007.7 |
| 20260503180420 | 11 | 236 | 9.7 | 12.9 | 0.00 | 0.00 | 0.00 | 32 | 1007.5 |
| 20260503175916 | 10 | 245 | 8.0 | 12.9 | 0.00 | 0.00 | 0.00 | 32 | 1007.8 |
| 20260503175415 | 10 | 195 | 6.4 | 12.9 | 0.00 | 0.00 | 0.00 | 31 | 1007.6 |
| 20260503174910 | 10 | 243 | 6.4 | 11.3 | 0.00 | 0.00 | 0.00 | 31 | 1007.6 |
| 20260503174408 | 11 | 139 | 1.6 | 12.9 | 0.00 | 0.00 | 0.00 | 31 | 1007.9 |
| 20260503173903 | 11 | 219 | 1.6 | 14.5 | 0.00 | 0.00 | 0.00 | 30 | 1007.9 |
| 20260503173359 | 10 | 348 | 1.6 | 4.8 | 0.00 | 0.00 | 0.00 | 31 | 1007.8 |
| 20260503172856 | 10 | 282 | 6.4 | 17.7 | 0.00 | 0.00 | 0.00 | 30 | 1008.0 |
| 20260503172353 | 10 | 237 | 4.8 | 14.5 | 0.00 | 0.00 | 0.00 | 30 | 1008.2 |
| 20260503171849 | 10 | 218 | 4.8 | 20.9 | 0.00 | 0.00 | 0.00 | 31 | 1008.3 |
| 20260503171346 | 10 | 224 | 3.2 | 9.7 | 0.00 | 0.00 | 0.00 | 31 | 1008.2 |
| 20260503170844 | 10 | 228 | 0.0 | 9.7 | 0.00 | 0.00 | 0.00 | 31 | 1008.2 |
| 20260503170340 | 10 | 270 | 11.3 | 20.9 | 0.00 | 0.00 | 0.00 | 30 | 1008.4 |
| 20260503150732 | 8 | 194 | 3.2 | 3.2 | 0.00 | 0.00 | 0.00 | 37 | 1009.7 |
| 20260503150228 | 8 | 123 | 6.4 | 9.7 | 0.00 | 0.00 | 0.00 | 37 | 1009.9 |
| 20260503140153 | 7 | 342 | 4.8 | 14.5 | 0.00 | 0.00 | 0.00 | 41 | 1010.6 |
| 20260503131122 | 5 | 224 | 0.0 | 3.2 | 0.00 | 0.00 | 0.00 | 46 | 1010.8 |
| 20260503130620 | 5 | 284 | 1.6 | 3.2 | 0.00 | 0.00 | 0.00 | 48 | 1010.8 |
| 20260503130118 | 5 | 15 | 1.6 | 9.7 | 0.00 | 0.00 | 0.00 | 48 | 1011.0 |
| 20260503110510 | 1 | 209 | 0.0 | 1.6 | 0.00 | 0.00 | 0.00 | 69 | 1011.2 |
| 20260503090402 | 0 | 225 | 0.0 | 0.0 | 0.00 | 0.00 | 0.00 | 75 | 1011.2 |
| 20260503081329 | 0 | 195 | 0.0 | 0.0 | 0.00 | 0.00 | 0.00 | 70 | 1011.0 |
| 20260503080826 | 0 | 195 | 0.0 | 0.0 | 0.00 | 0.00 | 0.00 | 71 | 1011.3 |
| 20260503080323 | 1 | 195 | 0.0 | 0.0 | 0.00 | 0.00 | 0.00 | 72 | 1011.1 |
| 20260503072759 | 1 | 264 | 0.0 | 0.0 | 0.00 | 0.00 | 0.00 | 68 | 1011.4 |
| 20260503072256 | 1 | 244 | 0.0 | 1.6 | 0.00 | 0.00 | 0.00 | 68 | 1011.1 |
| 20260503071752 | 1 | 208 | 0.0 | 1.6 | 0.00 | 0.00 | 0.00 | 67 | 1011.1 |
| 20260503071249 | 1 | 186 | 0.0 | 0.0 | 0.00 | 0.00 | 0.00 | 70 | 1011.6 |
| 20260503070745 | 1 | 237 | 0.0 | 1.6 | 0.00 | 0.00 | 0.00 | 69 | 1011.2 |
| 20260503070244 | 1 | 197 | 0.0 | 0.0 | 0.00 | 0.00 | 0.00 | 69 | 1011.2 |
| 20260503060209 | 1 | 204 | 0.0 | 0.0 | 0.00 | 0.00 | 0.00 | 69 | 1011.7 |
| 20260503054655 | 1 | 223 | 0.0 | 1.6 | 0.00 | 0.00 | 0.00 | 69 | 1011.6 |
| 20260503054153 | 1 | 248 | 1.6 | 1.6 | 0.00 | 0.00 | 0.00 | 68 | 1011.6 |
| 20260503053651 | 2 | 217 | 0.0 | 0.0 | 0.00 | 0.00 | 0.00 | 68 | 1011.8 |
| 20260503053149 | 2 | 237 | 0.0 | 0.0 | 0.00 | 0.00 | 0.00 | 67 | 1011.7 |
| 20260503052645 | 2 | 210 | 0.0 | 0.0 | 0.00 | 0.00 | 0.00 | 69 | 1011.8 |
| 20260503052141 | 2 | 215 | 0.0 | 0.0 | 0.00 | 0.00 | 0.00 | 67 | 1011.8 |
| 20260503051637 | 2 | 193 | 0.0 | 1.6 | 0.00 | 0.00 | 0.00 | 67 | 1011.9 |
| 20260503051135 | 2 | 157 | 0.0 | 0.0 | 0.00 | 0.00 | 0.00 | 70 | 1011.9 |
| 20260503050631 | 2 | 199 | 0.0 | 1.6 | 0.00 | 0.00 | 0.00 | 69 | 1011.9 |
| 20260503050128 | 2 | 206 | 0.0 | 0.0 | 0.00 | 0.00 | 0.00 | 70 | 1011.9 |
| 20260503045626 | 2 | 172 | 0.0 | 0.0 | 0.00 | 0.00 | 0.00 | 69 | 1012.1 |
| 20260503045122 | 2 | 202 | 0.0 | 1.6 | 0.00 | 0.00 | 0.00 | 69 | 1011.9 |
| 20260503044619 | 2 | 266 | 0.0 | 0.0 | 0.00 | 0.00 | 0.00 | 70 | 1012.0 |
| 20260503044117 | 2 | 231 | 0.0 | 1.6 | 0.00 | 0.00 | 0.00 | 68 | 1012.0 |
| 20260503043613 | 1 | 240 | 0.0 | 1.6 | 0.00 | 0.00 | 0.00 | 69 | 1012.0 |
| 20260503043110 | 1 | 213 | 0.0 | 0.0 | 0.00 | 0.00 | 0.00 | 76 | 1012.2 |
| 20260503042607 | 1 | 182 | 0.0 | 0.0 | 0.00 | 0.00 | 0.00 | 75 | 1012.2 |
| 20260503042103 | 1 | 194 | 0.0 | 0.0 | 0.00 | 0.00 | 0.00 | 76 | 1011.9 |
| 20260503041559 | 1 | 197 | 0.0 | 0.0 | 0.00 | 0.00 | 0.00 | 75 | 1012.1 |
| 20260503041057 | 1 | 202 | 0.0 | 0.0 | 0.00 | 0.00 | 0.00 | 75 | 1012.1 |
| 20260503040554 | 2 | 201 | 0.0 | 0.0 | 0.00 | 0.00 | 0.00 | 74 | 1012.0 |
| 20260503040051 | 2 | 201 | 0.0 | 0.0 | 0.00 | 0.00 | 0.00 | 72 | 1012.1 |
| 20260503035548 | 2 | 201 | 0.0 | 0.0 | 0.00 | 0.10 | 0.10 | 70 | 1012.1 |
| 20260503035046 | 2 | 201 | 0.0 | 0.0 | 0.00 | 0.10 | 0.10 | 70 | 1012.0 |
| 20260503034543 | 2 | 201 | 0.0 | 0.0 | 0.00 | 0.10 | 0.10 | 69 | 1012.0 |
| 20260503034040 | 2 | 201 | 0.0 | 0.0 | 0.00 | 0.10 | 0.10 | 69 | 1012.1 |
| 20260503033537 | 2 | 202 | 0.0 | 0.0 | 0.00 | 0.10 | 0.10 | 68 | 1012.2 |
| 20260503033035 | 2 | 202 | 0.0 | 0.0 | 0.00 | 0.10 | 0.10 | 67 | 1012.2 |
| 20260503032533 | 2 | 202 | 0.0 | 0.0 | 0.00 | 0.10 | 0.10 | 66 | 1012.3 |
| 20260503032031 | 2 | 203 | 0.0 | 0.0 | 0.00 | 0.10 | 0.10 | 66 | 1012.2 |
| 20260503031528 | 2 | 205 | 0.0 | 0.0 | 0.00 | 0.10 | 0.10 | 67 | 1012.1 |